Simultaneous Nadir Overpasses (SNOs) Predictions

Prediction of SNOs between AQUA and NOAA-19 Satellite Orbit:

Table of predicted SNOs for the next 14.0 days since TLE Epoch: 7/31/2021
Index Date (AQUA) Time (AQUA) Lat,Lon (AQUA) SZA (AQUA ) Date (NOAA-19) Time (NOAA-19) Lat,Lon (NOAA-19) SZA (NOAA-19 ) Distance(km) Time Diff (sec)
1 08/02/2021 07:05:40 -78.61,-128.01 118.14 08/02/2021 07:04:39 -78.63,-128.04 118.10 1.96 61
2 08/02/2021 07:55:08 78.64, 39.48 61.91 08/02/2021 07:55:32 78.67, 39.52 61.93 3.28 24
3 08/04/2021 13:28:51 -78.63, 136.13 117.53 08/04/2021 13:28:47 -78.63, 136.00 117.51 2.89 4
4 08/04/2021 14:18:27 78.99, -58.27 62.98 08/04/2021 14:19:30 79.01, -53.91 62.63 92.47 63
5 08/06/2021 19:02:35 78.60,-127.15 63.04 08/06/2021 19:01:49 78.62,-127.21 63.09 3.06 46
6 08/06/2021 19:52:02 -78.64, 40.25 116.89 08/06/2021 19:52:54 -78.66, 40.26 116.90 1.71 52
7 08/09/2021 00:36:19 -78.63, -30.73 116.30 08/09/2021 00:35:05 -78.54, -31.03 116.33 11.99 74
8 08/09/2021 01:25:46 78.62, 136.92 63.71 08/09/2021 01:25:57 78.62, 136.83 63.71 2.13 11
9 08/11/2021 06:59:29 -78.61,-126.44 115.67 08/11/2021 06:59:10 -78.63,-126.33 115.65 3.10 19
10 08/11/2021 07:48:56 78.65, 40.97 64.40 08/11/2021 07:50:03 78.65, 41.09 64.37 2.67 67
11 08/13/2021 12:33:12 78.60, -29.84 64.99 08/13/2021 12:32:12 78.60, -29.70 65.00 3.15 60



Historial Predications of SNOs between AQUA and NOAA-19
